{"data":{"norad_id":52633,"intl_designator":"2022-052AM","name":"STARLINK-3994","alt_names":[],"object_type":"PAYLOAD","status":"ACTIVE","operator":null,"country":"US","launch_date":"2022-05-14","launch_site_code":"AFETR","launch_vehicle":null,"mission":null,"orbit_class":"UNKNOWN","rcs_meters":null,"size_class":null,"mass_kg":null,"dimensions":null,"purposes":["comms"],"wikipedia_slug":null,"has_3d_model":false,"image_url":null,"decayed_at":null,"tle_current":{"epoch":"2026-05-24T16:11:22.500672Z","epoch_age_seconds":110044,"freshness":"FRESH","line1":"1 52633U 22052AM  26144.67456598  .00000068  00000+0  22346-4 0  9991","line2":"2 52633  53.2144 288.0108 0001243  84.9285 275.1849 15.08836921222479","mean_motion":15.08836921,"eccentricity":0.0001243,"inclination_deg":53.2144,"raan_deg":288.0108,"arg_perigee_deg":84.9285,"mean_anomaly_deg":275.1849,"bstar":2.2346e-5,"rev_number":22247,"period_min":95.437749431902,"perigee_km":538.89290654916,"apogee_km":540.61269395351,"semimajor_km":6917.8898002513,"source":"CELESTRAK","updated_at":"2026-05-25T13:38:17.204454Z"}}}